Yatton Keynell, United Kingdom

8:05 AM BST on April 23, 2019 (GMT +0100)
Yatton Keynell

Weather History for 03740 - June, 2002

Change the Weather History Date:

Friday, June 21, 2002

  Actual Average Record
Temperature  
Mean Temperature 58 °F -  
Max Temperature 66 °F 68 °F - ()
Min Temperature 51 °F 52 °F - ()
Degree Days  
Heating Degree Days 6    
Growing Degree Days 8 (Base 50)    
Moisture  
Dew Point 49 °F    
Average Humidity 77    
Maximum Humidity 94    
Minimum Humidity 46    
Precipitation  
Precipitation 0.00 in 0.07 in - ()
Sea Level Pressure  
Sea Level Pressure 30.09 in    
Wind  
Wind Speed 7 mph ()    
Max Wind Speed 14 mph    
Max Gust Speed -    
Visibility 6.1 miles    
Events Rain    
T = Trace of Precipitation, MM = Missing Value Source: Averaged Metar Reports

Daily Weather History Graph

Daily Weather History Graph

Search for Another Location

Airport or City:

Astronomy

Jun. 21, 2002 Rise Set
Actual Time 4:50 AM BST 9:28 PM BST
Civil Twilight 4:02 AM BST 10:16 PM BST
Nautical Twilight 2:48 AM BST 11:31 PM BST
Astronomical Twilight 1:41 AM BST 12:37 AM BST
Moon 5:36 PM BST (6/21) 2:44 AM BST (6/21)
Length of Visible Light 18h 13m
Length of Day
16h 38m
Waxing Gibbous, 86% of the Moon is Illuminated
Jun 21
Waxing Gibbous
Jun 24
Full
Jul 2
Last Quarter
Jul 10
New
Jul 17
First Quarter

Hourly Weather History & Observations

Time (BST) Temp. Dew Point Humidity Pressure Visibility Wind Dir Wind Speed Gust Speed Precip Events Conditions
12:50 AM 53.6 °F 46.4 °F 77% 30.15 in - WSW 5.8 mph - N/A   Clear
1:50 AM 53.6 °F 46.4 °F 77% 30.12 in - SSW 3.5 mph - N/A   Clear
2:50 AM 51.8 °F 46.4 °F 82% 30.12 in 6.2 mi SSW 4.6 mph - N/A   Mostly Cloudy
3:50 AM 51.8 °F 46.4 °F 82% 30.12 in 6.2 mi South 4.6 mph - N/A   Mostly Cloudy
4:50 AM 51.8 °F 48.2 °F 88% 30.12 in 6.2 mi South 3.5 mph - N/A Rain Light Rain
5:50 AM 51.8 °F 48.2 °F 88% 30.12 in 6.2 mi SSE 4.6 mph - N/A Rain Light Rain
6:50 AM 51.8 °F 50.0 °F 94% 30.12 in 6.2 mi South 4.6 mph - N/A   Mostly Cloudy
7:41 AM 53.6 °F 51.8 °F 94% 30.12 in 6.2 mi South 4.6 mph - N/A   Mostly Cloudy
7:50 AM 53.6 °F 50.0 °F 88% 30.12 in 6.2 mi South 4.6 mph - N/A   Mostly Cloudy
8:50 AM 55.4 °F 50.0 °F 82% 30.12 in 6.2 mi SSW 6.9 mph - N/A Rain Light Rain
9:50 AM 55.4 °F 50.0 °F 82% 30.12 in 6.2 mi South 6.9 mph - N/A   Mostly Cloudy
10:50 AM 59.0 °F 50.0 °F 72% 30.09 in 6.2 mi South 9.2 mph - N/A   Scattered Clouds
11:50 AM 62.6 °F 48.2 °F 59% 30.09 in 6.2 mi South 12.7 mph - N/A   Scattered Clouds
12:50 PM 64.4 °F 48.2 °F 56% 30.09 in 6.2 mi South 12.7 mph - N/A   Scattered Clouds
1:50 PM 62.6 °F 48.2 °F 59% 30.09 in 6.2 mi SSW 10.4 mph - N/A   Mostly Cloudy
2:50 PM 62.6 °F 48.2 °F 59% 30.09 in 6.2 mi SSW 12.7 mph - N/A   Mostly Cloudy
3:50 PM 66.2 °F 44.6 °F 46% 30.06 in 6.2 mi SSW 13.8 mph - N/A   Mostly Cloudy
4:50 PM 62.6 °F 48.2 °F 59% 30.06 in 6.2 mi SSW 12.7 mph - N/A   Mostly Cloudy
5:50 PM 62.6 °F 48.2 °F 59% 30.06 in 6.2 mi SSW 9.2 mph - N/A   Mostly Cloudy
6:50 PM 59.0 °F 46.4 °F 63% 30.06 in 6.2 mi South 12.7 mph - N/A   Mostly Cloudy
7:50 PM 55.4 °F 51.8 °F 88% 30.06 in 5.0 mi South 12.7 mph - N/A Rain Light Rain
8:50 PM 53.6 °F 51.8 °F 94% 30.06 in 5.0 mi South 8.1 mph - N/A Rain Light Rain
9:50 PM 53.6 °F 51.8 °F 94% 30.06 in 5.6 mi South 10.4 mph - N/A Rain Light Rain
10:50 PM 53.6 °F 51.8 °F 94% 30.06 in 6.2 mi South 10.4 mph - N/A   Overcast
11:50 PM 53.6 °F 51.8 °F 94% 30.04 in 6.2 mi South 13.8 mph - N/A   Overcast